Regional Weather Roundup
Issued by NWS

Home | Current Version | Previous Version | Graphics & Text | Print | Product List | Glossary On
Versions: 1 2 3 4 5 6 7 8 9 10 11 12 13 14 15 16 17 18 19 20 21 22 23 24 25 26 27 28 29 30 31 32 33 34 35 36 37 38 39 40 41 42 43 44 45 46 47 48 49 50
000
ASUS45 KABQ 230910
RWRNM
NEW MEXICO REGIONAL WEATHER ROUNDUP
NATIONAL WEATHER SERVICE ALBUQUERQUE NM
200 AM MST THU NOV 23 2017

NOTE: "FAIR" MEANS FEW OR NO CLOUDS BELOW 12,000 FEET AGL WITH NO
       SIGNIFICANT WEATHER OR OBSTRUCTIONS TO VISION.

      THIS PRODUCT IS RELEASED AS TWO VERSIONS.  ONE VERSION NEAR
      THE TOP OF THE HOUR CONTAINING PRELIMINARY DATA FROM ALBUQUERQUE
      AND OTHER STATIONS.  A FINAL VERSION WITH ADDITIONAL DATA IS
      ISSUED ABOUT 10 MINUTES AFTER THE HOUR.

NMZ501-503-504-510>518-231000-
NORTHWEST PLATEAU/NORTHCENTRAL MOUNTAINS

CITY           SKY/WX    TMP DP  RH WIND       PRES   REMARKS
FARMINGTON     FAIR      30  21  69 NE5       30.35S WCI  25
LOS ALAMOS     FAIR      50  26  38 N9        30.39S
SANTA FE       FAIR      40  27  59 NE9       30.34S WCI  34
TAOS           FAIR      29  22  75 CALM      30.42S
ANGEL FIRE     FAIR      26  24  92 CALM      30.44S

$$
NMZ402-403-502-505>509-231000-
WESTCENTRAL MOUNTAINS/SOUTHWEST MOUNTAINS

CITY           SKY/WX    TMP DP  RH WIND       PRES   REMARKS
GALLUP         FAIR      23  14  68 E6        30.41S WCI  16
GRANTS         FAIR      30  23  75 NW13      30.41S WCI  20
SILVER CITY    FAIR      38  19  47 N7        30.30F WCI  33

$$
NMZ407-409-411-412-231000-
SOUTHERN DESERTS

CITY           SKY/WX    TMP DP  RH WIND       PRES   REMARKS
DEMING         FAIR      38  19  46 W3        30.28S
LAS CRUCES     FAIR      39  22  51 NW7       30.28S WCI  34
HOLLOMAN AFB   FAIR      35  22  57 NE5       30.29S WCI  31
ALAMOGORDO     FAIR      39  23  52 CALM      30.28S
T OR C         FAIR      46  23  40 NW8       30.28F

$$
NMZ519>523-231000-
CENTRAL VALLEYS/CENTRAL HIGHLANDS

CITY           SKY/WX    TMP DP  RH WIND       PRES   REMARKS
ALBUQUERQUE    FAIR      44  26  49 CALM      30.32F
DOUBLE EAGLE   FAIR      35  25  67 W8        30.34F WCI  29
MORIARTY ARPT  FAIR      28  19  71 N6        30.35S WCI  21
CLINES CORNERS FAIR      40  26  57 NW12      30.35S WCI  33
BELEN          FAIR      35  24  63 CALM      30.32F
SOCORRO        FAIR      40  24  51 NW8       30.31S WCI  35

$$
NMZ524>526-539-540-231000-
SOUTHCENTRAL MOUNTAINS

CITY           SKY/WX    TMP DP  RH WIND       PRES   REMARKS
RUIDOSO        FAIR      45  23  42 W9        30.36R

$$
NMZ527>531-231000-
NORTHEAST HIGHLANDS/NORTHEAST PLAINS

CITY           SKY/WX    TMP DP  RH WIND       PRES   REMARKS
LAS VEGAS      FAIR      41  27  57 N9        30.33S
RATON          FAIR      33  23  66 N6        30.31R WCI  28
CLAYTON        FAIR      48  26  42 NW10      30.23S

$$
NMZ532>537-231000-
EASTCENTRAL PLAINS

CITY           SKY/WX    TMP DP  RH WIND       PRES   REMARKS
SANTA ROSA     FAIR      38  28  67 CALM      30.25F
TUCUMCARI      FAIR      40  28  62 W7        30.21S
CANNON AFB     FAIR      45  29  53 NW10      30.23F
CLOVIS AIRPORT FAIR      42  29  59 NW12      30.23S

$$
NMZ028-029-538-231000-
SOUTHEAST PLAINS

CITY           SKY/WX    TMP DP  RH WIND       PRES   REMARKS
ROSWELL        FAIR      36  26  67 W3        30.23S
ARTESIA        FAIR      37  25  60 NW6       30.23S WCI  33
CARLSBAD       FAIR      36  29  75 N8        30.21S WCI  30
HOBBS          FAIR      34  27  75 NW6       30.21F WCI  29


$$




USA.gov is the U.S. government's official web portal to all federal, state and local government web resources and services.